| time (UTC) | temp F | wind direction | speed MPH | gust MPH | rain 1hr in | rain 24hr in | rain mn in | humidity % | barometer mb |
| 20260509004016 | 67 | 0.0 | 0.0 | 0.00 | 0.02 | 0.02 | 76 | 1007.0 | |
| 20260509003016 | 67 | 0.0 | 0.0 | 0.00 | 0.02 | 0.02 | 78 | 1006.9 | |
| 20260509002016 | 65 | 0.0 | 0.0 | 0.00 | 0.02 | 0.02 | 80 | 1006.8 | |
| 20260509001016 | 63 | 0.0 | 0.0 | 0.00 | 0.02 | 0.02 | 83 | 1006.8 | |
| 20260509000016 | 63 | 90 | 2.0 | 3.0 | 0.00 | 0.02 | 0.02 | 83 | 1006.6 |
| 20260508235016 | 63 | 158 | 1.0 | 2.0 | 0.00 | 0.02 | 0.02 | 83 | 1006.3 |
| 20260508234016 | 63 | 135 | 3.0 | 5.0 | 0.00 | 0.02 | 0.02 | 82 | 1006.2 |
| 20260508233107 | 63 | 0.0 | 0.0 | 0.00 | 0.02 | 0.02 | 84 | 1006.2 | |
| 20260508232716 | 62 | 113 | 2.0 | 3.0 | 0.00 | 0.02 | 0.02 | 84 | 1006.2 |
| 20260508231716 | 63 | 90 | 3.0 | 4.0 | 0.00 | 0.02 | 0.02 | 83 | 1006.5 |
| 20260508230716 | 62 | 0.0 | 1.0 | 0.00 | 0.02 | 0.02 | 83 | 1006.5 | |
| 20260508225716 | 62 | 0.0 | 0.0 | 0.00 | 0.02 | 0.02 | 85 | 1006.5 | |
| 20260508224716 | 62 | 0 | 2.0 | 3.0 | 0.01 | 0.02 | 0.02 | 84 | 1006.8 |
| 20260508223716 | 63 | 0 | 2.0 | 2.0 | 0.02 | 0.02 | 0.02 | 83 | 1007.0 |
| 20260508222825 | 63 | 0 | 2.0 | 2.0 | 0.02 | 0.02 | 0.02 | 84 | 1007.0 |
| 20260508222416 | 63 | 23 | 3.0 | 5.0 | 0.02 | 0.02 | 0.02 | 84 | 1007.0 |
| 20260508221416 | 63 | 0 | 5.0 | 6.0 | 0.02 | 0.02 | 0.02 | 85 | 1006.9 |
| 20260508220416 | 63 | 23 | 3.0 | 4.0 | 0.02 | 0.02 | 0.02 | 89 | 1007.1 |
| 20260508215416 | 62 | 0 | 3.0 | 5.0 | 0.01 | 0.01 | 0.01 | 84 | 1007.1 |
| 20260508214416 | 63 | 23 | 2.0 | 2.0 | 0.01 | 0.01 | 0.01 | 84 | 1007.1 |
| 20260508213416 | 64 | 0 | 1.0 | 1.0 | 0.00 | 0.00 | 0.00 | 82 | 1007.6 |
| 20260508212416 | 65 | 23 | 2.0 | 3.0 | 0.00 | 0.00 | 0.00 | 79 | 1007.5 |
| 20260508211436 | 66 | 0 | 1.0 | 2.0 | 0.00 | 0.00 | 0.00 | 77 | 1007.8 |
| 20260508210416 | 67 | 0.0 | 1.0 | 0.00 | 0.00 | 0.00 | 76 | 1007.7 | |
| 20260508205416 | 68 | 0.0 | 1.0 | 0.00 | 0.00 | 0.00 | 75 | 1007.4 | |
| 20260508204416 | 69 | 0.0 | 1.0 | 0.00 | 0.00 | 0.00 | 75 | 1007.6 | |
| 20260508203436 | 68 | 315 | 1.0 | 1.0 | 0.00 | 0.00 | 0.00 | 76 | 1008.2 |
| 20260508202436 | 68 | 0.0 | 1.0 | 0.00 | 0.00 | 0.00 | 74 | 1007.9 | |
| 20260508201416 | 67 | 0.0 | 1.0 | 0.00 | 0.00 | 0.00 | 74 | 1008.2 | |
| 20260508200416 | 68 | 0.0 | 0.0 | 0.00 | 0.00 | 0.00 | 72 | 1007.9 | |
| 20260508195416 | 67 | 0.0 | 0.0 | 0.00 | 0.00 | 0.00 | 73 | 1007.8 | |
| 20260508194416 | 67 | 315 | 1.0 | 3.0 | 0.00 | 0.00 | 0.00 | 73 | 1008.1 |
| 20260508193416 | 67 | 0.0 | 1.0 | 0.00 | 0.00 | 0.00 | 75 | 1008.4 | |
| 20260508192416 | 66 | 180 | 1.0 | 2.0 | 0.00 | 0.00 | 0.00 | 74 | 1008.2 |
| 20260508191456 | 67 | 158 | 2.0 | 2.0 | 0.00 | 0.00 | 0.00 | 73 | 1008.2 |
| 20260508190436 | 67 | 203 | 1.0 | 2.0 | 0.00 | 0.00 | 0.00 | 73 | 1008.5 |
| 20260508185416 | 67 | 0.0 | 2.0 | 0.00 | 0.00 | 0.00 | 74 | 1008.6 | |
| 20260508184416 | 67 | 180 | 2.0 | 3.0 | 0.00 | 0.00 | 0.00 | 75 | 1008.7 |
| 20260508183416 | 66 | 203 | 2.0 | 5.0 | 0.00 | 0.00 | 0.00 | 73 | 1008.8 |
| 20260508182416 | 66 | 315 | 2.0 | 4.0 | 0.00 | 0.00 | 0.00 | 74 | 1009.0 |
| 20260508181416 | 66 | 270 | 2.0 | 4.0 | 0.00 | 0.00 | 0.00 | 74 | 1009.0 |
| 20260508180416 | 66 | 203 | 2.0 | 5.0 | 0.00 | 0.00 | 0.00 | 76 | 1009.0 |
| 20260508175416 | 65 | 203 | 4.0 | 8.0 | 0.00 | 0.00 | 0.00 | 76 | 1009.0 |
| 20260508174416 | 64 | 225 | 4.0 | 7.0 | 0.00 | 0.00 | 0.00 | 76 | 1008.6 |
| 20260508173436 | 64 | 180 | 2.0 | 3.0 | 0.00 | 0.00 | 0.00 | 75 | 1008.9 |
| 20260508172416 | 64 | 203 | 4.0 | 7.0 | 0.00 | 0.00 | 0.00 | 77 | 1009.3 |
| 20260508171458 | 63 | 0.0 | 0.0 | 0.00 | 0.00 | 0.00 | 79 | 1009.4 | |
| 20260508171216 | 63 | 203 | 3.0 | 4.0 | 0.00 | 0.00 | 0.00 | 79 | 1009.4 |
| 20260508170216 | 63 | 270 | 2.0 | 3.0 | 0.00 | 0.00 | 0.00 | 77 | 1009.6 |
| 20260508165216 | 64 | 225 | 2.0 | 4.0 | 0.00 | 0.00 | 0.00 | 74 | 1009.8 |
| 20260508164236 | 64 | 225 | 5.0 | 7.0 | 0.00 | 0.00 | 0.00 | 72 | 1009.6 |
| 20260508163216 | 65 | 270 | 4.0 | 6.0 | 0.00 | 0.00 | 0.00 | 72 | 1009.6 |
| 20260508162216 | 64 | 225 | 1.0 | 2.0 | 0.00 | 0.00 | 0.00 | 74 | 1009.3 |
| 20260508161217 | 64 | 225 | 2.0 | 5.0 | 0.00 | 0.00 | 0.00 | 73 | 1009.5 |
| 20260508160237 | 64 | 225 | 5.0 | 6.0 | 0.00 | 0.00 | 0.00 | 71 | 1009.5 |
| 20260508155216 | 64 | 225 | 4.0 | 6.0 | 0.00 | 0.00 | 0.00 | 72 | 1009.6 |
| 20260508154216 | 64 | 225 | 4.0 | 6.0 | 0.00 | 0.00 | 0.00 | 71 | 1009.9 |
| 20260508153236 | 64 | 225 | 2.0 | 4.0 | 0.00 | 0.00 | 0.00 | 71 | 1009.9 |
| 20260508152216 | 62 | 248 | 1.0 | 3.0 | 0.00 | 0.00 | 0.00 | 73 | 1009.9 |
| 20260508151253 | 61 | 270 | 2.0 | 2.0 | 0.00 | 0.00 | 0.00 | 74 | 1009.9 |
| 20260508150556 | 60 | 0.0 | 1.0 | 0.00 | 0.00 | 0.00 | 75 | 1009.9 | |
| 20260508145516 | 60 | 225 | 1.0 | 5.0 | 0.00 | 0.00 | 0.00 | 75 | 1009.8 |
| 20260508144516 | 60 | 203 | 2.0 | 5.0 | 0.00 | 0.00 | 0.00 | 75 | 1009.8 |
| 20260508143536 | 59 | 203 | 3.0 | 7.0 | 0.00 | 0.00 | 0.00 | 75 | 1009.7 |
| 20260508142536 | 59 | 203 | 5.0 | 7.0 | 0.00 | 0.00 | 0.00 | 75 | 1009.8 |
| 20260508141536 | 59 | 225 | 5.0 | 8.0 | 0.00 | 0.00 | 0.00 | 75 | 1009.9 |
| 20260508140517 | 59 | 203 | 5.0 | 7.0 | 0.00 | 0.00 | 0.00 | 76 | 1009.8 |
| 20260508135517 | 59 | 203 | 2.0 | 4.0 | 0.00 | 0.00 | 0.00 | 75 | 1010.0 |
| 20260508134516 | 59 | 203 | 3.0 | 5.0 | 0.00 | 0.00 | 0.00 | 75 | 1009.9 |
| 20260508133536 | 59 | 203 | 2.0 | 4.0 | 0.00 | 0.00 | 0.00 | 75 | 1010.0 |
| 20260508132516 | 59 | 203 | 3.0 | 5.0 | 0.00 | 0.00 | 0.00 | 74 | 1010.0 |
| 20260508131516 | 59 | 203 | 3.0 | 5.0 | 0.00 | 0.00 | 0.00 | 75 | 1010.1 |
| 20260508130517 | 58 | 270 | 2.0 | 4.0 | 0.00 | 0.00 | 0.00 | 75 | 1010.2 |
| 20260508125556 | 57 | 225 | 1.0 | 2.0 | 0.00 | 0.00 | 0.00 | 76 | 1010.1 |
| 20260508124517 | 57 | 270 | 2.0 | 4.0 | 0.00 | 0.00 | 0.00 | 77 | 1009.8 |
| 20260508123517 | 57 | 248 | 2.0 | 5.0 | 0.00 | 0.00 | 0.00 | 76 | 1009.7 |
| 20260508122517 | 56 | 225 | 4.0 | 7.0 | 0.00 | 0.00 | 0.00 | 76 | 1009.9 |
| 20260508121517 | 56 | 225 | 2.0 | 3.0 | 0.00 | 0.00 | 0.00 | 76 | 1009.8 |
| 20260508120557 | 56 | 203 | 4.0 | 6.0 | 0.00 | 0.00 | 0.00 | 77 | 1009.7 |
| 20260508115517 | 56 | 203 | 4.0 | 6.0 | 0.00 | 0.00 | 0.00 | 77 | 1009.5 |
| 20260508114517 | 56 | 203 | 3.0 | 5.0 | 0.00 | 0.00 | 0.00 | 77 | 1009.5 |
| 20260508113517 | 55 | 225 | 2.0 | 4.0 | 0.00 | 0.00 | 0.00 | 77 | 1009.4 |
| 20260508112517 | 55 | 203 | 3.0 | 6.0 | 0.00 | 0.00 | 0.00 | 77 | 1009.4 |
| 20260508111517 | 55 | 203 | 4.0 | 9.0 | 0.00 | 0.00 | 0.00 | 78 | 1009.2 |
| 20260508110537 | 55 | 293 | 1.0 | 2.0 | 0.00 | 0.00 | 0.00 | 78 | 1009.3 |
| 20260508105517 | 55 | 225 | 2.0 | 4.0 | 0.00 | 0.00 | 0.00 | 78 | 1009.4 |
| 20260508104517 | 55 | 225 | 3.0 | 6.0 | 0.00 | 0.00 | 0.00 | 78 | 1009.3 |
| 20260508103517 | 55 | 203 | 5.0 | 8.0 | 0.00 | 0.00 | 0.00 | 78 | 1009.2 |
| 20260508102537 | 55 | 225 | 4.0 | 5.0 | 0.00 | 0.00 | 0.00 | 78 | 1009.3 |
| 20260508101517 | 55 | 203 | 5.0 | 7.0 | 0.00 | 0.00 | 0.00 | 78 | 1009.1 |
| 20260508100537 | 55 | 203 | 5.0 | 8.0 | 0.00 | 0.00 | 0.00 | 78 | 1009.0 |
| 20260508095537 | 55 | 225 | 4.0 | 6.0 | 0.00 | 0.00 | 0.00 | 77 | 1009.1 |
| 20260508094540 | 55 | 203 | 4.0 | 6.0 | 0.00 | 0.00 | 0.00 | 78 | 1009.2 |
| 20260508094317 | 55 | 225 | 4.0 | 5.0 | 0.00 | 0.00 | 0.00 | 78 | 1009.2 |
| 20260508093317 | 55 | 203 | 3.0 | 5.0 | 0.00 | 0.00 | 0.00 | 78 | 1009.1 |
| 20260508092317 | 54 | 203 | 4.0 | 5.0 | 0.00 | 0.00 | 0.00 | 78 | 1009.1 |
| 20260508091317 | 54 | 180 | 3.0 | 4.0 | 0.00 | 0.00 | 0.00 | 78 | 1009.2 |
| 20260508090317 | 54 | 203 | 4.0 | 7.0 | 0.00 | 0.00 | 0.00 | 77 | 1009.3 |
| 20260508085317 | 54 | 225 | 4.0 | 6.0 | 0.00 | 0.00 | 0.00 | 77 | 1009.3 |
| 20260508084337 | 54 | 203 | 2.0 | 4.0 | 0.00 | 0.00 | 0.00 | 77 | 1009.3 |
| 20260508083317 | 55 | 203 | 3.0 | 4.0 | 0.00 | 0.00 | 0.00 | 77 | 1009.4 |
| 20260508082317 | 55 | 203 | 4.0 | 6.0 | 0.00 | 0.00 | 0.00 | 77 | 1009.6 |
| 20260508081337 | 55 | 180 | 3.0 | 5.0 | 0.00 | 0.00 | 0.00 | 77 | 1009.7 |
| 20260508080317 | 55 | 225 | 2.0 | 4.0 | 0.00 | 0.00 | 0.00 | 77 | 1009.7 |
| 20260508075317 | 55 | 225 | 3.0 | 5.0 | 0.00 | 0.00 | 0.00 | 76 | 1009.9 |
| 20260508074317 | 54 | 203 | 4.0 | 6.0 | 0.00 | 0.00 | 0.00 | 76 | 1010.0 |
| 20260508073337 | 54 | 158 | 4.0 | 5.0 | 0.00 | 0.00 | 0.00 | 76 | 1009.9 |
| 20260508072317 | 55 | 180 | 3.0 | 4.0 | 0.00 | 0.00 | 0.00 | 76 | 1010.1 |
| 20260508071317 | 55 | 180 | 5.0 | 8.0 | 0.00 | 0.00 | 0.00 | 75 | 1010.3 |
| 20260508070317 | 55 | 203 | 4.0 | 6.0 | 0.00 | 0.00 | 0.00 | 75 | 1010.5 |
| 20260508065317 | 55 | 203 | 2.0 | 4.0 | 0.00 | 0.00 | 0.00 | 74 | 1010.5 |
| 20260508064337 | 56 | 203 | 5.0 | 7.0 | 0.00 | 0.00 | 0.00 | 74 | 1010.6 |
| 20260508063317 | 56 | 180 | 2.0 | 4.0 | 0.00 | 0.00 | 0.00 | 73 | 1010.7 |
| 20260508062337 | 56 | 180 | 2.0 | 3.0 | 0.00 | 0.00 | 0.00 | 73 | 1010.7 |
| 20260508061334 | 57 | 0.0 | 0.0 | 0.00 | 0.00 | 0.00 | 72 | 1010.8 | |
| 20260508060417 | 57 | 225 | 4.0 | 5.0 | 0.00 | 0.00 | 0.00 | 71 | 1010.8 |
| 20260508055417 | 57 | 225 | 5.0 | 6.0 | 0.00 | 0.00 | 0.00 | 71 | 1010.9 |
| 20260508054437 | 58 | 225 | 6.0 | 11.0 | 0.00 | 0.00 | 0.00 | 70 | 1010.8 |
| 20260508053417 | 58 | 225 | 4.0 | 5.0 | 0.00 | 0.00 | 0.00 | 70 | 1010.9 |
| 20260508052415 | 58 | 203 | 3.0 | 6.0 | 0.00 | 0.00 | 0.00 | 69 | 1010.9 |
| 20260508051415 | 58 | 203 | 4.0 | 8.0 | 0.00 | 0.00 | 0.00 | 69 | 1010.9 |
| 20260508050415 | 58 | 225 | 5.0 | 10.0 | 0.00 | 0.00 | 0.00 | 69 | 1011.0 |
| 20260508045416 | 58 | 225 | 6.0 | 9.0 | 0.00 | 0.00 | 0.00 | 69 | 1011.0 |
| 20260508044416 | 59 | 225 | 3.0 | 4.0 | 0.00 | 0.00 | 0.00 | 69 | 1011.2 |
| 20260508043416 | 59 | 203 | 6.0 | 9.0 | 0.00 | 0.00 | 0.00 | 68 | 1011.2 |
| 20260508042416 | 59 | 203 | 4.0 | 6.0 | 0.00 | 0.00 | 0.00 | 68 | 1011.3 |
| 20260508041416 | 59 | 203 | 5.0 | 8.0 | 0.00 | 0.00 | 0.00 | 67 | 1011.2 |
| 20260508040416 | 60 | 203 | 6.0 | 8.0 | 0.00 | 0.00 | 0.00 | 67 | 1011.3 |
| 20260508035416 | 60 | 203 | 4.0 | 7.0 | 0.00 | 0.00 | 0.00 | 67 | 1011.4 |
| 20260508034416 | 60 | 203 | 5.0 | 7.0 | 0.00 | 0.00 | 0.00 | 66 | 1011.3 |
| 20260508033416 | 60 | 180 | 6.0 | 8.0 | 0.00 | 0.00 | 0.00 | 65 | 1011.2 |
| 20260508032452 | 60 | 0.0 | 0.0 | 0.00 | 0.00 | 0.00 | 66 | 1011.2 | |
| 20260508032116 | 60 | 203 | 5.0 | 6.0 | 0.00 | 0.00 | 0.00 | 66 | 1011.2 |
| 20260508031116 | 60 | 203 | 4.0 | 7.0 | 0.00 | 0.00 | 0.00 | 66 | 1011.1 |
| 20260508030116 | 60 | 203 | 4.0 | 6.0 | 0.00 | 0.00 | 0.00 | 66 | 1011.0 |
| 20260508025116 | 60 | 203 | 4.0 | 7.0 | 0.00 | 0.00 | 0.00 | 66 | 1010.9 |
| 20260508024116 | 60 | 180 | 4.0 | 4.0 | 0.00 | 0.00 | 0.00 | 67 | 1010.7 |
| 20260508023116 | 60 | 203 | 5.0 | 8.0 | 0.00 | 0.00 | 0.00 | 66 | 1010.7 |
| 20260508022116 | 61 | 203 | 4.0 | 6.0 | 0.00 | 0.00 | 0.00 | 66 | 1010.6 |
| 20260508021116 | 61 | 180 | 3.0 | 5.0 | 0.00 | 0.00 | 0.00 | 66 | 1010.5 |
| 20260508020136 | 61 | 180 | 3.0 | 4.0 | 0.00 | 0.00 | 0.00 | 65 | 1010.4 |
| 20260508015136 | 61 | 158 | 2.0 | 2.0 | 0.00 | 0.00 | 0.00 | 65 | 1010.3 |
| 20260508014116 | 62 | 180 | 3.0 | 4.0 | 0.00 | 0.00 | 0.00 | 63 | 1010.4 |
| 20260508013116 | 63 | 180 | 3.0 | 6.0 | 0.00 | 0.00 | 0.00 | 61 | 1010.3 |
| 20260508012116 | 63 | 225 | 5.0 | 7.0 | 0.00 | 0.00 | 0.00 | 60 | 1010.3 |
| 20260508011136 | 63 | 203 | 3.0 | 5.0 | 0.00 | 0.00 | 0.00 | 60 | 1010.2 |
| 20260508010116 | 63 | 225 | 3.0 | 5.0 | 0.00 | 0.00 | 0.00 | 60 | 1010.2 |
| 20260508005116 | 64 | 203 | 3.0 | 4.0 | 0.00 | 0.00 | 0.00 | 59 | 1010.3 |